map of ANS home
ANS - Airport
Location
City:  Andahuaylas, Apurímac, Perú
Name:Andahuaylas Airport
ICAO:SPHY
IATA:ANS

Details
Type:Airport (Aerodrome, Airfield)
Use:Public/Civil
Latitude:13°42'32"S (-13.708818)
Longitude:73°21'06"W (-73.351555)
Elevation:11706 ft (3568 m)
Variation:4.63°W (WMM2015v2 magnetic declination)
-0.19° annual change
Runways:1
Longest:8202 × 148 ft (2500 × 45 m), paved

Time
Time Zone:UTC-5
Local Time:

Weather
METAR:SPHY 041400Z 36005KT 7000 SCT012 OVC040 09/07 Q1035 RMK BIRD HAZARD RWY03/21 PP000
TAF:SPHY 041100Z 0412/0512 00000KT 6000 -DZ SCT010 OVC040 TX15/0419Z TN02/0511Z
BECMG 0413/0415 8000 NSW SCT015 BKN050
TEMPO 0418/0422 36010KT
TEMPO 0500/0504 RA
BECMG 0508/0510 5000 DZ SCT010 OVC040

Related Locations
Nearby:
Farthest:RBE: 12427 mi / 19999 km
Ban Lung [Ratanakiri Airport], 16, KH

Find:

   beyond  
but within

Other Information
Maps:
NOTAMs:
Links:
Sources:

  
  • flag of Perú
  

Sectional Chart

Flight Planning
at skyvector.com

Satellite Image

Google Maps Satellite view

 

Copyright © 2004-2019 Karl L. Swartz. All rights reserved.
The Great Circle Mapper name and logo are trademarks of the Great Circle Mapper.
All other trademarks mentioned herein belong to their respective owners.
Please see credits for attibutions and further copyright information.

  Follow gcmap on Facebook Follow gcmap on Twitter GCmap on LinkedIn

hCard Microformat

Geo Microformat